Regional Weather Roundup
Issued by NWS

Home | Current Version | Previous Version | Text Only | Print | Product List | Glossary Off
Versions: 1 2 3 4 5 6 7 8 9 10 11 12 13 14 15 16 17 18 19 20 21 22 23 24 25 26 27 28 29 30 31 32 33 34 35 36 37 38 39 40 41 42 43 44 45 46 47 48 49 50

000
ASUS45 KABQ 101210
RWRNM
WEATHER ROUNDUP FOR NEW MEXICO
NATIONAL WEATHER SERVICE ALBUQUERQUE NM
600 AM MDT THU JUL 10 2014

NOTE: "FAIR" MEANS FEW OR NO CLOUDS BELOW 12,000 FEET AGL WITH NO
       SIGNIFICANT WEATHER OR OBSTRUCTIONS TO VISION.

      THIS PRODUCT IS RELEASED AS TWO VERSIONS.  ONE VERSION NEAR
      THE TOP OF THE HOUR CONTAINING PRELIMINARY DATA FROM ALBUQUERQUE
      AND OTHER STATIONS.  A FINAL VERSION WITH ADDITIONAL DATA IS
      ISSUED ABOUT 10 MINUTES AFTER THE HOUR.

NMZ501-503-504-510>518-101300-
NORTHWEST PLATEAU/NORTHCENTRAL MOUNTAINS

CITY           SKY/WX    TMP DP  RH WIND       PRES   REMARKS
FARMINGTON     PTCLDY    63  52  67 E6        30.17S
6HR MIN TEMP:  63; 6HR MAX TEMP:  71;

LOS ALAMOS     MOCLDY    61  51  70 W3        30.29S
SANTA FE       CLOUDY    62  53  72 N10       30.21R
6HR MIN TEMP:  61; 6HR MAX TEMP:  68;

TAOS           CLEAR     52  45  76 E5        30.28S
ANGEL FIRE     FAIR      44  42  95 CALM      30.35S

$$
NMZ402-403-502-505>509-101300-
WESTCENTRAL MOUNTAINS/SOUTHWEST MOUNTAINS

CITY           SKY/WX    TMP DP  RH WIND       PRES   REMARKS
GALLUP         PTCLDY    59  56  89 NE5       30.24R
6HR MIN TEMP:  59; 6HR MAX TEMP:  62; 6HR PCP:  0.03;

GRANTS         MOCLDY    55  50  86 NW6       30.26S
SILVER CITY    PTCLDY    64  54  68 NW12      30.15R

$$
NMZ407-409-411-412-101300-
SOUTHERN DESERTS

CITY           SKY/WX    TMP DP  RH WIND       PRES   REMARKS
LORDSBURG      FAIR      68  55  64 W8        30.06S
DEMING         CLEAR     64  57  78 S3        30.06R
6HR MIN TEMP:  63; 6HR MAX TEMP:  76;

LAS CRUCES     CLEAR     71  56  57 SE6       30.08R
HOLLOMAN AFB   PTCLDY    70  51  51 SE6       30.05R
ALAMOGORDO     CLEAR     64  50  59 E6        30.08R
T OR C         MOCLDY    73  53  49 NE6       30.10R
6HR MIN TEMP:  73; 6HR MAX TEMP:  79;


$$
NMZ519>523-101300-
CENTRAL VALLEYS/CENTRAL HIGHLANDS

CITY           SKY/WX    TMP DP  RH WIND       PRES   REMARKS
ALBUQUERQUE    PTCLDY    67  55  65 N5        30.16R
6HR MIN TEMP:  67; 6HR MAX TEMP:  73;

DOUBLE EAGLE   PTCLDY    64  54  68 W6        30.20R
MORIARTY ARPT  FAIR      56  53  89 CALM      30.21F
6HR MIN TEMP:  56; 6HR MAX TEMP:  65;

CLINES CORNERS CLEAR     57  48  72 NW10      30.24S
6HR MIN TEMP:  57; 6HR MAX TEMP:  66;

BELEN          FAIR      67  57  70 CALM      30.15S
6HR MIN TEMP:  66; 6HR MAX TEMP:  75;

SOCORRO        MOCLDY    68  56  64 NW3       30.13R
6HR MIN TEMP:  66; 6HR MAX TEMP:  78;


$$
NMZ524>526-539-540-101300-
SOUTHCENTRAL MOUNTAINS

CITY           SKY/WX    TMP DP  RH WIND       PRES   REMARKS
RUIDOSO        CLEAR     59  48  67 W5        30.26S

$$
NMZ527>531-101300-
NORTHEAST HIGHLANDS/NORTHEAST PLAINS

CITY           SKY/WX    TMP DP  RH WIND       PRES   REMARKS
LAS VEGAS      CLEAR     58  47  66 S7        30.21S
6HR MIN TEMP:  57; 6HR MAX TEMP:  63; 6HR PCP: TRACE;

RATON            N/A    N/A N/A N/A MISG      30.15S
CLAYTON        NOT AVBL

$$
NMZ532>537-101300-
EASTCENTRAL PLAINS

CITY           SKY/WX    TMP DP  RH WIND       PRES   REMARKS
TUCUMCARI      MOCLDY    73  56  54 SW10      30.04R
6HR MIN TEMP:  73; 6HR MAX TEMP:  78;

CANNON AFB     PTCLDY    65  59  81 S6        30.10S
6HR MIN TEMP:  65; 6HR MAX TEMP:  74;

CLOVIS AIRPORT NOT AVBL

$$
NMZ028-029-538-101300-
SOUTHEAST PLAINS

CITY           SKY/WX    TMP DP  RH WIND       PRES   REMARKS
ROSWELL        CLEAR     67  56  67 SW5       30.05R
6HR MIN TEMP:  67; 6HR MAX TEMP:  81;

ARTESIA        CLEAR     68  57  68 S5        30.05R
CARLSBAD       CLEAR     72  58  61 SE9       30.02F
6HR MIN TEMP:  70; 6HR MAX TEMP:  82;

HOBBS          CLEAR     64  55  72 SE6       30.08


$$



USA.gov is the U.S. government's official web portal to all federal, state and local government web resources and services.